This demonstration page uses our WeatherBlox Daily Observations layout. Learn more.

Left ArrowRight Arrow

34.74481, -87.66753

Hourly Observations for June 11, 2019

Temp ( °F °C ) Dew Point ( °F °C ) Humidity (%) Winds ( mph kmh ) Pressure ( in mb ) Visibility ( mi km ) Precip ( " mm )
12:53 am 00:53 Clear 68 20 52 11.1 57 57 VRB 3 6 30.12 1020 10 16 0.00 0.00
1:53 am 01:53 Clear 65 18.3 53 11.7 66 66 Calm 30.12 1020 10 16 0.00 0.00
2:53 am 02:53 Clear 63 17.2 53 11.7 70 70 Calm 30.13 1020 10 16 0.00 0.00
3:53 am 03:53 Clear 62 16.7 53 11.7 73 73 N 3 6 30.12 1020 10 16 0.00 0.00
4:53 am 04:53 Clear 64 17.8 52 11.1 65 65 NE 7 11 30.12 1020 10 16 0.00 0.00
5:53 am 05:53 Sunny 63 17.2 53 11.7 70 70 N 5 7 30.14 1021 10 16 0.00 0.00
6:53 am 06:53 Sunny 64 17.8 53 11.7 68 68 VRB 6 9 30.16 1021 10 16 0.00 0.00
7:53 am 07:53 Sunny 66 18.9 49 9.4 54 54 NE 10 17 30.17 1022 10 16 0.00 0.00
8:53 am 08:53 Sunny 70 21.1 46 7.8 42 42 ENE 17 28 30.17 1022 10 16 0.00 0.00
9:53 am 09:53 Sunny 72 22.2 44 6.7 37 37 ENE 12 19 30.14 1021 10 16 0.00 0.00
10:53 am 10:53 Sunny 76 24.4 43 6.1 31 31 NNE 12 19 30.13 1020 10 16 0.00 0.00
11:53 am 11:53 Sunny 76 24.4 41 5 29 29 NE 13 20 30.11 1020 10 16 0.00 0.00
12:53 pm 12:53 Sunny 78 25.6 43 6.1 29 29 NNE 10 17 30.09 1019 10 16 0.00 0.00
1:53 pm 13:53 Sunny 77 25 44 6.7 31 31 NE 12 19 30.08 1019 10 16 0.00 0.00
2:53 pm 14:53 Sunny 76 24.4 44 6.7 32 32 NE 10 17 30.07 1018 10 16 0.00 0.00
3:53 pm 15:53 Sunny 77 25 47 8.3 35 35 NE 10 17 30.05 1018 10 16 0.00 0.00
4:53 pm 16:53 Sunny 77 25 46 7.8 33 33 ENE 9 15 30.04 1017 10 16 0.00 0.00
5:53 pm 17:53 Sunny 76 24.4 49 9.4 39 39 ENE 7 11 30.02 1017 10 16 0.00 0.00
6:53 pm 18:53 Sunny 75 23.9 52 11.1 45 45 Calm 30.01 1016 10 16 0.00 0.00
7:53 pm 19:53 Sunny 73 22.8 52 11.1 48 48 VRB 5 7 30.02 1017 10 16 0.00 0.00
8:53 pm 20:53 Clear 70 21.1 51 10.6 51 51 N 5 7 30.01 1016 10 16 0.00 0.00
9:53 pm 21:53 Clear 70 21.1 53 11.7 55 55 NE 7 11 30.02 1017 10 16 0.00 0.00
10:53 pm 22:53 Clear 68 20 53 11.7 59 59 NE 6 9 30.02 1017 10 16 0.00 0.00
11:53 pm 23:53 Clear 67 19.4 54 12.2 63 63 NE 6 9 30.02 1017 10 16 0.00 0.00

Powered by AerisWeather